Regional Weather Roundup
Issued by NWS

Home | Current Version | Previous Version | Text Only | Print | Product List | Glossary On
Versions: 1 2 3 4 5 6 7 8 9 10 11 12 13 14 15 16 17 18 19 20 21 22 23 24 25 26 27 28 29 30 31 32 33 34 35 36 37 38 39 40 41 42 43 44 45 46 47 48 49 50
000
ASUS43 KOAX 162010
RWRNE

WEATHER ROUNDUP FOR NEBRASKA
NATIONAL WEATHER SERVICE OMAHA NE
200 PM CST TUE JAN 16 2018

NOTES: SATELLITE DATA IS BEING USED TO AUGMENT CLOUD COVER ABOVE
       12000 FEET.
       "FAIR" INDICATES FEW OR NO CLOUDS BELOW 12,000 FEET WITH NO
       SIGNIFICANT WEATHER AND/OR OBSTRUCTIONS TO VISIBILITY.


NEZ001>004-019>022-054>056-162100-
NEBRASKA PANHANDLE

CITY           SKY/WX    TMP DP  RH WIND       PRES   REMARKS
SCOTTSBLUFF    SUNNY      8   0  69 E6        30.41F WCI  -2
ALLIANCE       SUNNY     19  -4  36 S12       30.40F WCI   7
CHADRON        SUNNY     25   5  42 W3        30.40F
GORDON         FAIR      20   0  41 SW10      30.41F WCI   8
KIMBALL        SUNNY     31  -1  26 W6        30.35F WCI  25
SIDNEY         SUNNY     24   7  48 SW12      30.41F WCI  13
$$

NEZ057>060-069>072-079>082-162100-
SOUTHWEST NEBRASKA

CITY           SKY/WX    TMP DP  RH WIND       PRES   REMARKS
NORTH PLATTE   SUNNY     13  -1  54 SW9       30.57F WCI   1
IMPERIAL       SUNNY     16  -4  41 W5        30.52F WCI   9
LEXINGTON      SUNNY     11   0  60 CALM      30.63F
MCCOOK         SUNNY     13   1  59 SW3       30.61F
OGALLALA       SUNNY     20   2  45 SW7       30.51F WCI  11
$$

NEZ005>010-023>029-035>040-094-162100-
NORTH CENTRAL NEBRASKA

CITY           SKY/WX    TMP DP  RH WIND       PRES   REMARKS
VALENTINE      SUNNY     17   0  47 S10       30.53F WCI   5
AINSWORTH      SUNNY     13   1  58 SW9       30.55F WCI   0
BROKEN BOW     SUNNY      8  -2  63 W6        30.60F WCI  -2
O`NEILL        SUNNY      7  -2  66 CALM      30.64F
ORD            SUNNY     12  -1  56 CALM      30.64F
THEDFORD       SUNNY     14  -2  47 SW8       30.54F WCI   3
$$

NEZ041-046>049-061>064-073>077-083>087-162100-
SOUTH CENTRAL NEBRASKA

CITY           SKY/WX    TMP DP  RH WIND       PRES   REMARKS
GRAND ISLAND   SUNNY      9   2  73 W6        30.67F WCI  -1
AURORA         SUNNY     11   2  70 NW7       30.68F WCI   0
HASTINGS       SUNNY      8   0  69 NW6       30.67F WCI  -2
HEBRON         SUNNY     13   5  70 NW9       30.71F WCI   1
HOLDREGE       SUNNY     12   4  67 W3        30.63F
KEARNEY        SUNNY      9   0  67 W5        30.66F WCI   1
YORK           SUNNY     12   5  73 NW10      30.68F WCI  -1
$$

NEZ011>018-030>034-042>045-162100-
NORTHEAST NEBRASKA

CITY           SKY/WX    TMP DP  RH WIND       PRES   REMARKS
NORFOLK        SUNNY      9   0  67 NW10      30.67F WCI  -5
ALBION         SUNNY     14   1  58 NW7       30.66F WCI   3
BLAIR          SUNNY      8   1  73 NW8       30.69S WCI  -5
COLUMBUS       SUNNY     13   2  61 NW12      30.71F WCI  -1
FREMONT        SUNNY     11   2  68 NW10      30.72S WCI  -3
TEKAMAH        SUNNY      7  -2  66 NW12      30.73F WCI  -8
WAYNE          SUNNY      7  -1  69 NW9       30.69F WCI  -7
$$

NEZ050>053-065>068-078-088>093-162100-
SOUTHEAST NEBRASKA

CITY           SKY/WX    TMP DP  RH WIND       PRES   REMARKS
LINCOLN        SUNNY     15   3  59 N10       30.72F WCI   2
BEATRICE       SUNNY     13   5  70 NW8       30.71F WCI   1
FALLS CITY     CLOUDY     7  -2  66 NW12      30.73F WCI  -8
NEBRASKA CITY  CLOUDY     7   2  79 NW8       30.72S WCI  -5
PLATTSMOUTH    MOSUNNY    7   1  75 NW8       30.71F WCI  -6
$$

NEZ044-045-051>053-067-162100-
OMAHA AREA

CITY           SKY/WX    TMP DP  RH WIND       PRES   REMARKS
BLAIR          SUNNY      8   1  73 NW8       30.69S WCI  -5
FREMONT        SUNNY     11   2  68 NW10      30.72S WCI  -3
MILLARD        SUNNY     10   0  64 W6        30.73F WCI   0
OFFUTT AFB     SUNNY      7  -2  65 NW8       30.72F WCI  -5
PLATTSMOUTH    MOSUNNY    7   1  75 NW8       30.71F WCI  -6
WAHOO          FAIR      12   3  68 NW10      30.71F WCI  -2
$$




USA.gov is the U.S. government's official web portal to all federal, state and local government web resources and services.